Regional Weather Roundup
Issued by NWS

Home | Current Version | Previous Version | Graphics & Text | Print | Product List | Glossary On
Versions: 1 2 3 4 5 6 7 8 9 10 11 12 13 14 15 16 17 18 19 20 21 22 23 24 25 26 27 28 29 30 31 32 33 34 35 36 37 38 39 40 41 42 43 44 45 46 47 48 49 50
000
ASUS43 KOAX 220502
RWRNE

WEATHER ROUNDUP FOR NEBRASKA
NATIONAL WEATHER SERVICE OMAHA NE
1100 PM CST SUN JAN 21 2018

NOTES: SATELLITE DATA IS BEING USED TO AUGMENT CLOUD COVER ABOVE
       12000 FEET.
       "FAIR" INDICATES FEW OR NO CLOUDS BELOW 12,000 FEET WITH NO
       SIGNIFICANT WEATHER AND/OR OBSTRUCTIONS TO VISIBILITY.


NEZ001>004-019>022-054>056-220600-
NEBRASKA PANHANDLE

CITY           SKY/WX    TMP DP  RH WIND       PRES   REMARKS
SCOTTSBLUFF    CLOUDY    28  21  75 NW16      29.96S WCI  16
ALLIANCE       CLOUDY    26  24  92 N16       29.90S WCI  14
CHADRON        CLOUDY    24  21  88 NW9       29.98S WCI  14
GORDON         CLOUDY    28  24  84 N20       29.90F WCI  15
KIMBALL        LGT SNOW  24  22  92 NW28      29.90S WCI   7
SIDNEY         LGT SNOW  26  23  88 N31G40    29.87S FOG     WCI   9
$$

NEZ057>060-069>072-079>082-220600-
SOUTHWEST NEBRASKA

CITY           SKY/WX    TMP DP  RH WIND       PRES   REMARKS
NORTH PLATTE   FOG       30  27  88 N22G36    29.72S VSB 1/2 WCI  17
IMPERIAL       CLOUDY    28  27  96 N29G37    29.77S FOG     WCI  12
LEXINGTON      LGT RAIN  33  31  92 N14       29.64S WCI  23
MCCOOK         SNOW      30  29  96 N31G41    29.65S VSB 1/2 WCI  15
OGALLALA       CLOUDY    29  27  93 N33G39    29.79F WCI  13
$$

NEZ005>010-023>029-035>040-094-220600-
NORTH CENTRAL NEBRASKA

CITY           SKY/WX    TMP DP  RH WIND       PRES   REMARKS
VALENTINE      LGT SNOW  30  27  88 N17G30    29.88F VSB 3/4 WCI  18
AINSWORTH      CLOUDY    29  28  99 N26G35    29.83F WCI  14
BROKEN BOW     LGT SNOW  32  29  88 N30G43    29.64S FOG     WCI  18
O`NEILL        LGT SNOW  32  32 100 N26G33    29.78F VSB 3/4 WCI  18
ORD            LGT SNOW  32  31  96 NE33G46   29.65S FOG     WCI  17
THEDFORD       CLOUDY    30  28  94 N24G32    29.78F WCI  16
$$

NEZ041-046>049-061>064-073>077-083>087-220600-
SOUTH CENTRAL NEBRASKA

CITY           SKY/WX    TMP DP  RH WIND       PRES   REMARKS
GRAND ISLAND   CLOUDY    33  33 100 NE28G37   29.59F WCI  20
AURORA         CLOUDY    34  33  99 NE23      29.61F WCI  21
HASTINGS       CLOUDY    33  32  96 NE20      29.58F FOG     WCI  21
HEBRON         FOG       37  37  99 E14       29.57S VSB 1/2 WCI  29
HOLDREGE       MIX PCPN  32  32 100 N14G22    29.60S WCI  22
YORK           CLOUDY    34  34 100 NE22      29.63S FOG     WCI  22
$$

NEZ011>018-030>034-042>045-220600-
NORTHEAST NEBRASKA

CITY           SKY/WX    TMP DP  RH WIND       PRES   REMARKS
NORFOLK        LGT RAIN  45  31  58 NE18G26   29.70F
ALBION         MIX PCPN  33  32  94 NE22G36   29.67F WCI  21
BLAIR          LGT RAIN  37  36  97 N12       29.64R WCI  29
COLUMBUS       CLOUDY    34  32  92 N21G32    29.65F WCI  22
FREMONT        LGT RAIN  36  36  99 N13       29.65F WCI  27
TEKAMAH        LGT RAIN  37  34  89 N15       29.68F FOG     WCI  28
WAYNE          MIX PCPN  33  32  96 N18G26    29.73S WCI  22
$$

NEZ050>053-065>068-078-088>093-220600-
SOUTHEAST NEBRASKA

CITY           SKY/WX    TMP DP  RH WIND       PRES   REMARKS
LINCOLN        CLOUDY    37  36  96 N12       29.63S WCI  29
OMAHA EPPLEY   LGT RAIN  38  36  92 N12       29.63F FOG     WCI  30
BEATRICE       CLOUDY    39  39 100 N6        29.61S FOG     WCI  35
FALLS CITY     CLOUDY    44  44 100 NW6       29.55F FOG
NEBRASKA CITY  CLOUDY    39  39 100 NE15      29.57F FOG     WCI  30
PLATTSMOUTH    CLOUDY    37  37 100 N12       29.60F FOG     WCI  29
$$

NEZ044-045-051>053-067-220600-
OMAHA AREA

CITY           SKY/WX    TMP DP  RH WIND       PRES   REMARKS
OMAHA EPPLEY   LGT RAIN  38  36  92 N12       29.63F FOG     WCI  30
BLAIR          LGT RAIN  37  36  97 N12       29.64R WCI  29
FREMONT        LGT RAIN  36  36  99 N13       29.65F WCI  27
MILLARD        DRIZZLE   39  37  93 N8        29.64F WCI  34
OFFUTT AFB     CLOUDY    37  37 100 N8        29.62S WCI  31
PLATTSMOUTH    CLOUDY    37  37 100 N12       29.60F FOG     WCI  29
WAHOO          CLOUDY    36  35  96 N21G26    29.59F FOG     WCI  25
$$




USA.gov is the U.S. government's official web portal to all federal, state and local government web resources and services.